This is the latest recevied weather packets stored in our database for station/object KE0YJJ-14. If no packets are shown the sender has not sent any weather packets the latest 10 day(s).
| Time | Temp. | Humidity | Pressure | Rain* | Wind** | Luminosity | Snow |
|---|---|---|---|---|---|---|---|
| 1777476268 | 9.44° C | 43% | - | 0 mm | - | - | - |
| 1777475963 | 9.44° C | 43% | - | 0 mm | - | - | - |
| 1777475660 | 9.44° C | 44% | - | 0 mm | - | - | - |
| 1777475356 | 9.44° C | 47% | - | 0 mm | - | - | - |
| 1777475051 | 8.89° C | 46% | - | 0 mm | - | - | - |
| 1777474749 | 8.89° C | 46% | - | 0 mm | - | - | - |
| 1777474444 | 8.33° C | 49% | - | 0 mm | - | - | - |
| 1777474141 | 8.33° C | 48% | - | 0 mm | - | - | - |
| 1777473839 | 8.33° C | 49% | - | 0 mm | - | - | - |
| 1777473536 | 8.33° C | 50% | - | 0 mm | - | - | - |
| 1777473231 | 8.33° C | 51% | - | 0 mm | - | - | - |
| 1777472928 | 7.78° C | 51% | - | 0 mm | - | - | - |
| 1777472624 | 8.33° C | 51% | - | 0 mm | - | - | - |
| 1777472321 | 7.78° C | 53% | - | 0 mm | - | - | - |
| 1777472019 | 7.78° C | 53% | - | 0 mm | - | - | - |
| 1777471714 | 7.22° C | 53% | - | 0 mm | - | - | - |
| 1777471410 | 7.22° C | 54% | - | 0 mm | - | - | - |
| 1777471107 | 7.22° C | 58% | - | 0 mm | - | - | - |
| 1777470803 | 6.67° C | 59% | - | 0 mm | - | - | - |
| 1777470501 | 6.67° C | 56% | - | 0 mm | - | - | - |
| 1777470197 | 6.67° C | 56% | - | 0 mm | - | - | - |
| 1777469894 | 6.67° C | 55% | - | 0 mm | - | - | - |
| 1777469589 | 6.11° C | 56% | - | 0 mm | - | - | - |
| 1777469289 | 6.11° C | 57% | - | 0 mm | - | - | - |
| 1777468985 | 5.56° C | 59% | - | 0 mm | - | - | - |
* Rain latest hour (hover to see other rain measurements)
** Current wind speed in m/s (hover to see current wind gust speed)